This demonstration page uses our WeatherBlox Daily Observations layout. Learn more.

Left ArrowRight Arrow

Hourly Observations for December 31, 2015

Temp ( °F °C ) Dew Point ( °F °C ) Humidity (%) Winds ( mph kmh ) Pressure ( in mb ) Visibility ( mi km ) Precip ( " mm )
12:53 am 00:53 Cloudy 35 1.7 29 -1.7 78 78 NNW 8 13 30.26 1025 10 16 N/A
1:53 am 01:53 Cloudy 36 2.2 28 -2.2 73 73 W 7 11 30.25 1025 10 16 N/A
2:53 am 02:53 Cloudy 35 1.7 28 -2.2 76 76 WNW 8 13 30.27 1025 10 16 N/A
3:53 am 03:53 Cloudy 35 1.7 28 -2.2 76 76 W 7 11 30.28 1025 10 16 N/A
4:53 am 04:53 Cloudy 35 1.7 28 -2.2 76 76 W 6 9 30.29 1026 10 16 N/A
5:53 am 05:53 Cloudy 34 1.1 29 -1.7 82 82 NW 9 15 30.30 1026 10 16 N/A
6:16 am 06:16 Cloudy 34 1.1 29 -1.7 82 82 NW 8 13 30.33 1027 10 16 N/A
6:28 am 06:28 Cloudy 34 1.1 29 -1.7 82 82 WNW 8 13 30.33 1027 10 16 N/A
6:53 am 06:53 Cloudy 34 1.1 29 -1.7 82 82 W 5 7 30.31 1026 10 16 N/A
7:53 am 07:53 Cloudy 34 1.1 28 -2.2 79 79 W 7 11 30.32 1027 10 16 N/A
8:17 am 08:17 Cloudy 34 1.1 28 -2.2 79 79 WNW 7 11 30.33 1027 10 16 N/A
8:42 am 08:42 Cloudy 33 0.6 27 -2.8 78 78 WNW 9 15 30.33 1027 10 16 N/A
8:53 am 08:53 Cloudy 33 0.6 27 -2.8 78 78 W 7 11 30.33 1027 10 16 N/A
9:53 am 09:53 Cloudy 34 1.1 26 -3.3 73 73 W 7 11 30.35 1028 10 16 N/A
10:53 am 10:53 Cloudy 33 0.6 27 -2.8 78 78 W 8 13 30.37 1028 10 16 N/A
11:53 am 11:53 Cloudy 33 0.6 27 -2.8 78 78 WNW 7 11 30.35 1028 9 14 N/A
12:53 pm 12:53 Cloudy 33 0.6 26 -3.3 75 75 W 10 17 30.32 1027 10 16 N/A
1:31 pm 13:31 Cloudy 32 undefined 26 -3.3 79 79 WNW 12 19 30.33 1027 10 16 N/A
1:50 pm 13:50 Cloudy 34 1 25 -4 70 70 W 13 20 30.33 1027 10 16 N/A
1:53 pm 13:53 Cloudy 33 0.6 25 -3.9 72 72 W 10 17 30.32 1027 10 16 N/A
3:53 pm 15:53 Cloudy 32 undefined 25 -3.9 75 75 WNW 9 15 30.32 1027 10 16 N/A
4:53 pm 16:53 Cloudy 32 undefined 24 -4.4 73 73 WNW 10 17 30.35 1028 10 16 N/A
5:53 pm 17:53 Cloudy 32 undefined 25 -3.9 75 75 WSW 8 13 30.36 1028 10 16 N/A
6:53 pm 18:53 Cloudy 31 -0.6 24 -4.4 76 76 W 7 11 30.37 1028 10 16 N/A
7:53 pm 19:53 Cloudy 32 undefined 22 -5.6 66 66 W 7 11 30.37 1029 10 16 N/A
8:53 pm 20:53 Cloudy 32 undefined 23 -5 69 69 WSW 7 11 30.37 1028 10 16 N/A
9:53 pm 21:53 Cloudy 32 undefined 22 -5.6 66 66 WSW 8 13 30.36 1028 10 16 N/A
10:53 pm 22:53 Cloudy 32 undefined 23 -5 69 69 W 8 13 30.35 1028 10 16 N/A
11:53 pm 23:53 Cloudy 32 undefined 23 -5 69 69 W 10 17 30.35 1028 10 16 N/A

Powered by AerisWeather